GSAT-9

Last updated on Jan. 26, 2020, 4:40 a.m. UTC

1 42695U 17024A   20025.58486979 -.00000294  00000-0  00000-0 0  9991
2 42695   0.1093 278.1316 0002602  14.2358 139.8082  1.00273933  9910
UTC
Height (km)
Latitude
Longitude
Inclination
Orbital Period
UTC large
Height (km)
Speed (km/s)
/
Latitude / Longitude
Inclination (degrees)
Orbital Period (minutes)
Azimuth
Elevation
Range (km)
Doppler Factor
iOS Compass Heading
iOS Angle

Next 30 passes for location: Hong Kong

Rise time Rise Azimuth (degrees) Set time Set Azimuth (degrees) Duration Max altitude (degrees)

No matching passes for this satellites